FW0327 Weather Reports


time (UTC)temp
C
wind
direction
speed
KPH
gust
KPH
rain 1hr
cm
rain 24hr
cm
rain mn
cm
humidity
%
barometer
mb
20190817131054 22 163 3.2 6.4 0.00 0.03 0.03 52 1010.9
20190817130050 22 270 3.2 11.3 0.00 0.03 0.03 52 1010.9
20190817125046 22 279 3.2 14.5 0.00 0.03 0.03 53 1010.8
20190817124042 23 121 4.8 9.7 0.00 0.03 0.03 54 1010.9
20190817123038 22 225 3.2 6.4 0.00 0.03 0.03 55 1011.0
20190817122034 22 248 3.2 14.5 0.00 0.03 0.03 54 1010.8
20190817121059 22 156 4.8 8.0 0.00 0.03 0.03 54 1010.8
20190817120103 23 240 4.8 8.0 0.00 0.03 0.03 54 1010.9
20190817115051 23 153 4.8 14.5 0.00 0.03 0.03 54 1011.0
20190817114047 23 155 4.8 11.3 0.00 0.03 0.03 54 1011.1
20190817113043 23 302 3.2 9.7 0.00 0.03 0.03 53 1011.1
20190817112039 23 149 3.2 12.9 0.00 0.03 0.03 52 1011.2
20190817111035 23 259 3.2 9.7 0.00 0.03 0.03 51 1011.3
20190817110101 24 170 3.2 9.7 0.00 0.03 0.03 49 1011.0
20190817105057 25 282 4.8 12.9 0.00 0.03 0.03 46 1010.8
20190817104052 25 120 3.2 6.4 0.00 0.03 0.03 51 1010.7
20190817103048 24 157 4.8 14.5 0.00 0.03 0.03 52 1010.6
20190817102044 23 111 3.2 14.5 0.00 0.03 0.03 53 1010.8
20190817101039 23 235 3.2 9.7 0.00 0.03 0.03 57 1010.9
20190817100036 23 155 1.6 6.4 0.00 0.03 0.03 58 1011.1
20190817095132 23 320 4.8 9.7 0.00 0.03 0.03 58 1011.2
20190817094057 22 113 3.2 9.7 0.00 0.03 0.03 63 1011.1
20190817093053 22 151 1.6 4.8 0.00 0.03 0.03 65 1011.3
20190817092049 21 165 0.0 3.2 0.00 0.03 0.03 69 1011.3
20190817091044 21 167 1.6 6.4 0.00 0.03 0.03 71 1011.2
20190817090041 21 135 0.0 3.2 0.00 0.03 0.03 71 1011.3
20190817085036 21 246 0.0 6.4 0.00 0.03 0.03 72 1011.3
20190817084033 21 0.0 1.6 0.00 0.03 0.03 73 1011.3
20190817083059 20 90 0.0 3.2 0.00 0.03 0.03 76 1011.2
20190817082054 20 0.0 1.6 0.00 0.03 0.03 78 1011.3
20190817081049 19 0.0 1.6 0.00 0.03 0.03 82 1011.3
20190817080045 19 180 1.6 3.2 0.03 0.03 0.03 85 1011.3
20190817075041 18 0.0 1.6 0.03 0.03 0.03 88 1011.4
20190817074037 17 0.0 1.6 0.03 0.03 0.03 87 1011.3
20190817073033 17 0.0 0.0 0.03 0.03 0.03 86 1011.3
20190817072029 17 0.0 0.0 0.03 0.03 0.03 84 1011.5
20190817071025 17 0.0 3.2 0.03 0.03 0.03 83 1011.5
20190817070021 17 0.0 0.0 0.00 0.00 0.00 82 1011.6
20190817065017 17 0.0 0.0 0.00 0.00 0.00 78 1011.6
20190817064113 17 0.0 0.0 0.00 0.00 0.00 75 1011.3
20190817063109 18 0.0 0.0 0.00 0.00 0.00 74 1011.3
20190817062105 17 0.0 3.2 0.00 0.00 0.00 75 1011.2
20190817061101 17 0.0 1.6 0.00 0.00 0.00 77 1011.1
20190817060057 17 0.0 1.6 0.00 0.00 0.00 79 1011.0
20190817055055 17 0.0 1.6 0.00 0.00 0.00 79 1010.9
20190817054049 17 0.0 1.6 0.00 0.00 0.00 81 1010.8
20190817053044 16 0.0 3.2 0.00 0.00 0.00 82 1010.6
20190817052041 16 0.0 0.0 0.00 0.00 0.00 82 1010.7
20190817051036 16 45 0.0 3.2 0.00 0.00 0.00 83 1010.6
20190817050032 16 0.0 1.6 0.00 0.00 0.00 83 1010.7
20190817045057 16 0.0 0.0 0.00 0.00 0.00 84 1010.6
20190817044053 16 0.0 0.0 0.00 0.00 0.00 84 1010.8
20190817043049 16 0.0 1.6 0.00 0.00 0.00 84 1010.7
20190817042045 16 0.0 0.0 0.00 0.00 0.00 84 1010.9
20190817041042 16 0.0 0.0 0.00 0.00 0.00 84 1011.0
20190817040037 16 0.0 1.6 0.00 0.00 0.00 83 1010.6
20190817035033 16 45 0.0 3.2 0.00 0.00 0.00 83 1010.6
20190817034030 16 45 3.2 6.4 0.00 0.00 0.00 82 1010.6
20190817033025 16 353 1.6 4.8 0.00 0.00 0.00 82 1010.5
20190817032021 16 15 4.8 8.0 0.00 0.00 0.00 82 1010.6
20190817031017 16 45 0.0 3.2 0.00 0.00 0.00 83 1010.7
20190817030113 16 28 1.6 4.8 0.00 0.00 0.00 83 1010.6
20190817025109 16 16 4.8 6.4 0.00 0.00 0.00 83 1010.7
20190817024110 15 27 3.2 6.4 0.00 0.00 0.00 83 1010.9
20190817023101 15 69 3.2 8.0 0.00 0.00 0.00 83 1010.9
20190817022102 16 24 1.6 8.0 0.00 0.00 0.00 82 1011.1
20190817021052 15 0 1.6 4.8 0.00 0.00 0.00 82 1011.2
20190817020048 15 45 0.0 3.2 0.00 0.00 0.00 82 1011.2
20190817015044 15 23 1.6 4.8 0.00 0.00 0.00 81 1011.2
20190817014040 15 41 3.2 6.4 0.00 0.00 0.00 81 1011.2
20190817013036 15 0.0 3.2 0.00 0.00 0.00 81 1011.2
20190817012037 15 29 0.0 3.2 0.00 0.00 0.00 81 1011.3
20190817011057 15 30 1.6 3.2 0.00 0.00 0.00 81 1011.5
20190817010053 15 0 1.6 4.8 0.00 0.00 0.00 80 1011.5
20190817005049 16 7 1.6 4.8 0.00 0.00 0.00 80 1011.5
20190817004045 16 45 0.0 3.2 0.00 0.00 0.00 78 1011.7
20190817003041 16 45 0.0 3.2 0.00 0.00 0.00 77 1011.8
20190817002037 16 45 0.0 3.2 0.00 0.00 0.00 77 1011.9
20190817001033 16 45 1.6 3.2 0.00 0.00 0.00 77 1012.0
20190817000058 16 45 0.0 3.2 0.00 0.00 0.00 77 1012.1
20190816235054 16 45 0.0 3.2 0.00 0.03 0.00 78 1012.1
20190816234050 16 0.0 0.0 0.00 0.03 0.00 77 1012.2
20190816233046 16 0.0 0.0 0.00 0.03 0.00 77 1012.3
20190816232042 16 0.0 1.6 0.00 0.03 0.00 75 1012.4
20190816231038 16 51 1.6 3.2 0.00 0.03 0.00 75 1012.1
20190816230033 16 135 0.0 3.2 0.00 0.03 0.00 75 1012.2
20190816225059 16 0.0 0.0 0.00 0.03 0.00 75 1012.3
20190816224055 16 0.0 0.0 0.00 0.03 0.00 75 1012.6
20190816223051 16 0.0 0.0 0.00 0.03 0.00 74 1012.7
20190816222047 17 0.0 0.0 0.00 0.03 0.00 73 1012.6
20190816221043 17 0.0 0.0 0.00 0.03 0.00 71 1012.6
20190816220038 17 0.0 0.0 0.00 0.03 0.00 70 1012.6
20190816215034 17 0.0 0.0 0.00 0.03 0.03 70 1012.7
20190816214100 17 0.0 0.0 0.00 0.03 0.03 69 1012.8
20190816213056 17 0 0.0 3.2 0.00 0.03 0.03 68 1012.8
20190816212052 18 16 3.2 4.8 0.00 0.03 0.03 67 1012.8
20190816211047 18 5 1.6 4.8 0.00 0.03 0.03 67 1012.9
20190816210044 17 17 3.2 4.8 0.00 0.03 0.03 67 1012.9
20190816205039 17 45 0.0 3.2 0.00 0.03 0.03 67 1012.9
20190816204036 17 29 3.2 4.8 0.00 0.03 0.03 67 1012.8
20190816203032 18 10 3.2 6.4 0.00 0.03 0.03 66 1012.7
20190816202057 18 32 4.8 6.4 0.00 0.03 0.03 65 1013.0
20190816201053 18 39 4.8 6.4 0.00 0.03 0.03 65 1013.1
20190816200054 18 26 3.2 6.4 0.00 0.03 0.03 64 1013.1
20190816195045 18 20 4.8 6.4 0.00 0.03 0.03 63 1013.1
20190816194041 18 16 3.2 6.4 0.00 0.03 0.03 63 1013.0
20190816193036 18 28 3.2 4.8 0.00 0.03 0.03 61 1013.1
20190816192032 19 0 0.0 3.2 0.00 0.03 0.03 60 1013.2
20190816191057 20 0 0.0 3.2 0.00 0.03 0.03 58 1013.1
20190816190054 20 45 1.6 4.8 0.00 0.03 0.03 56 1013.1
20190816185049 20 0.0 0.0 0.00 0.03 0.03 55 1013.1
20190816184045 20 0.0 1.6 0.00 0.03 0.03 55 1013.1
20190816183041 21 0.0 3.2 0.00 0.03 0.03 53 1013.1
20190816182037 22 0.0 1.6 0.00 0.03 0.03 49 1013.1
20190816181033 23 0.0 0.0 0.00 0.03 0.03 46 1013.2
20190816180029 23 240 0.0 3.2 0.00 0.03 0.03 44 1013.2
20190816175025 23 198 0.0 3.2 0.00 0.03 0.03 43 1013.2
20190816174021 23 111 1.6 4.8 0.00 0.03 0.03 42 1013.3
20190816173017 25 180 0.0 3.2 0.00 0.03 0.03 39 1013.3
20190816172113 25 180 0.0 3.2 0.00 0.03 0.03 38 1013.4
20190816171109 25 236 3.2 9.7 0.00 0.03 0.03 36 1013.4
20190816170105 26 176 3.2 8.0 0.00 0.03 0.03 34 1013.5
20190816165102 26 178 1.6 8.0 0.00 0.03 0.03 33 1013.4
20190816164057 27 207 1.6 3.2 0.00 0.10 0.03 31 1013.6
20190816163053 28 75 1.6 4.8 0.00 0.10 0.03 30 1013.6
20190816162049 28 180 3.2 4.8 0.00 0.10 0.03 30 1013.7
20190816161045 28 104 1.6 3.2 0.00 0.10 0.03 30 1013.9
20190816160041 29 126 3.2 11.3 0.00 0.10 0.03 28 1014.1
20190816155037 31 191 1.6 4.8 0.00 0.10 0.03 23 1014.2
20190816154033 31 158 3.2 9.7 0.00 0.10 0.03 24 1014.2
20190816153058 30 261 1.6 4.8 0.00 0.10 0.03 26 1014.2
20190816152054 30 180 1.6 8.0 0.00 0.10 0.03 26 1014.4
20190816151050 31 141 3.2 6.4 0.00 0.10 0.03 24 1014.3
20190816150047 32 195 1.6 6.4 0.00 0.10 0.03 26 1014.5
20190816145042 30 146 3.2 6.4 0.00 0.10 0.03 27 1014.7
20190816144038 30 242 1.6 4.8 0.00 0.10 0.03 30 1014.8
20190816143034 30 228 3.2 6.4 0.00 0.10 0.03 28 1014.9
20190816142059 29 222 1.6 6.4 0.00 0.10 0.03 31 1015.0
20190816141055 30 191 1.6 12.9 0.00 0.10 0.03 30 1015.2
20190816140051 30 190 1.6 6.4 0.00 0.10 0.03 30 1015.2
20190816135048 28 201 3.2 12.9 0.00 0.10 0.03 33 1015.4
20190816134043 27 61 1.6 11.3 0.00 0.10 0.03 34 1015.5
20190816133039 27 180 1.6 6.4 0.00 0.10 0.03 33 1015.7
20190816132035 26 203 3.2 11.3 0.00 0.10 0.03 37 1015.8